Location: Goettingen
(51.5300°N, 9.9433°E)
Time: 23:16:50
(UTC+01:00)

ISS - Pass Details

Date: 12 November 2019
Orbit: 412 x 421 km, 51.6° (Epoch: 15 November)

Event Time Altitude Azimuth Distance (km) Brightness Sun altitude
Exits shadow 05:01:28 12° 165° (SSE) 1,363 -1.0 -23.4°
Drops below altitude 10° 05:01:54 10° 160° (SSE) 1,499 -0.7 -23.3°
Sets 05:04:15 0° 145° (SE) 2,358 0.5 -23.0°
